Regional Weather Roundup
Issued by NWS

Home | Current Version | Previous Version | Text Only | Print | Product List | Glossary On
Versions: 1 2 3 4 5 6 7 8 9 10 11 12 13 14 15 16 17 18 19 20 21 22 23 24 25 26 27 28 29 30 31 32 33 34 35 36 37 38 39 40 41 42 43 44 45 46 47 48 49 50
000
ASUS44 KMEG 180210
RWRTN
TENNESSEE HOURLY STATE WEATHER ROUNDUP
NATIONAL WEATHER SERVICE MEMPHIS TN
800 PM CST WED JAN 17 2018

TNZ002-004-019-021-049-052-054-088>092-180300-
WEST TENNESSEE

CITY           SKY/WX    TMP DP  RH WIND       PRES   REMARKS
MEMPHIS INTL   FAIR      16   9  74 CALM      30.63F
NWS MEMPHIS      N/A     13 N/A N/A MISG        N/A
JACKSON        FAIR       8   5  87 CALM      30.63F
DYERSBURG      FAIR       7   3  84 CALM      30.63F
SOMERVILLE     CLEAR     12   7  79 CALM      30.61S
COVINGTON      CLEAR      7   5  92 CALM      30.64F
UNION CITY     CLEAR      9   5  85 CALM      30.62F
BOLIVAR        CLEAR     10   7  85 CALM      30.61F
PARIS          CLEAR      1   0  92 W3        30.59S
HUNTINGDON     CLEAR     12   7  79 CALM      30.60S
LEXINGTON      CLEAR     14   7  73 CALM      30.60F
SELMER         CLEAR     12   7  79 VRB5      30.60S WCI   4
SAVANNAH       CLEAR     16   9  73 CALM      30.61S
$$

TNZ008-025-027-028-033-062-065-066-180300-
NORTH MIDDLE TENNESSEE

CITY           SKY/WX    TMP DP  RH WIND       PRES   REMARKS
NASHVILLE      FAIR      15   7  70 N5        30.59S WCI   8
PORTLAND       CLEAR      7   5  92 CALM      30.56S
CLARKSVILLE    FAIR      12   7  80 W6        30.59S WCI   3
SMYRNA         FAIR      10   6  84 CALM      30.61R
COOKEVILLE     CLOUDY    16  10  79 NE6       30.53F WCI   7
GALLATIN       CLEAR      9   7  92 CALM      30.62R
CROSSVILLE     CLOUDY    11   6  81 N7        30.45S WCI   0
$$

TNZ061-075-076-078-094-096-097-180300-
SOUTH MIDDLE TENNESSEE

CITY           SKY/WX    TMP DP  RH WIND       PRES   REMARKS
FAYETTEVILLE   CLEAR     14   9  79 NE8       30.53F WCI   3
TULLAHOMA      CLEAR     10   7  85 N3        30.53S
WINCHESTER     CLEAR     10   7  85 N3        30.54F
MCMINNVILLE    CLOUDY    14   9  79 N6        30.54S WCI   5
COLUMBIA       CLEAR     16   9  73 CALM      30.56S
SHELBYVILLE    CLEAR      7   5  92 CALM      30.57R
$$

TNZ017-018-042-046-047-180300-
NORTHEAST TENNESSEE

CITY           SKY/WX    TMP DP  RH WIND       PRES   REMARKS
TRI CITIES     FAIR      12   3  67 NW8       30.43R WCI   0
ELIZABETHTON   FAIR      10   3  72 NW5       30.42R WCI   2
$$

TNZ012-013-036-069-073-074-180300-
CENTRAL EAST TENNESSEE

CITY           SKY/WX    TMP DP  RH WIND       PRES   REMARKS
KNOXVILLE      FAIR      13   6  74 NE5       30.52R WCI   5
OAK RIDGE      FAIR      13   7  77 CALM      30.54S
DOWNTOWN KNOXV PTCLDY    12   7  79 CALM      30.55R
GATLINBURG     PTCLDY    12   5  73 CALM      30.53R
MORRISTOWN     CLEAR     12   5  73 N9        30.47S WCI   0
JACKSBORO      CLOUDY    14   7  73 CALM      30.54S
$$

TNZ083-085-099-180300-
SOUTHEAST TENNESSEE

CITY           SKY/WX    TMP DP  RH WIND       PRES   REMARKS
CHATTANOOGA    FAIR      16   7  67 N8        30.54R WCI   5
DAYTON         CLEAR     16  10  79 N6        30.54S WCI   7
$$

SKY/WX REPORTED AS FAIR MEANS FEW OR NO CLOUDS BELOW
12 THOUSAND FEET.





USA.gov is the U.S. government's official web portal to all federal, state and local government web resources and services.